Satellite-Ground Cal/Val Region Overpasses Predictions

Prediction of Satellite NPP Overpassing Cal/Val Region: PacNW

Region Location: (Latitude: 10.00, Longitude: 139.50) to (Latitude: 22.70, Longitude: 165.60).

Table of predicted overpasses for the next 14.0 days since TLE Epoch: 8/9/2013
Interval Starting Time Starting Location Ending Time Ending Location
1 08/09/2013 16:02:00 ( 22.69, 144.44) 08/09/2013 16:05:36 ( 10.01, 141.41)
2 08/10/2013 03:11:06 ( 10.02, 151.94) 08/10/2013 03:14:41 ( 22.64, 148.93)
3 08/10/2013 15:42:59 ( 22.69, 149.19) 08/10/2013 15:46:35 ( 10.01, 146.17)
4 08/11/2013 02:52:05 ( 10.03, 156.69) 08/11/2013 02:55:40 ( 22.65, 153.69)
5 08/11/2013 15:23:59 ( 22.68, 153.94) 08/11/2013 15:27:35 ( 10.00, 150.92)
6 08/12/2013 02:33:05 ( 10.03, 161.45) 08/12/2013 02:36:40 ( 22.65, 158.44)
7 08/12/2013 15:04:58 ( 22.68, 158.70) 08/12/2013 15:08:33 ( 10.06, 155.69)
8 08/13/2013 02:14:49 ( 12.68, 165.59) 08/13/2013 02:17:39 ( 22.66, 163.19)
9 08/13/2013 03:55:34 ( 10.04, 140.83) 08/13/2013 03:57:11 ( 15.74, 139.50)
10 08/13/2013 14:45:58 ( 22.67, 163.45) 08/13/2013 14:49:33 ( 10.05, 160.44)
11 08/14/2013 03:36:34 ( 10.05, 145.58) 08/14/2013 03:40:09 ( 22.67, 142.57)
12 08/14/2013 14:30:03 ( 11.80, 165.60) 08/14/2013 14:30:33 ( 10.04, 165.19)
13 08/14/2013 16:08:28 ( 22.66, 142.83) 08/14/2013 16:12:03 ( 10.04, 139.82)
14 08/15/2013 03:17:33 ( 10.06, 150.33) 08/15/2013 03:21:08 ( 22.67, 147.32)
15 08/15/2013 15:49:27 ( 22.65, 147.58) 08/15/2013 15:53:02 ( 10.03, 144.57)
16 08/16/2013 02:58:32 ( 10.00, 155.10) 08/16/2013 03:02:08 ( 22.68, 152.08)
17 08/16/2013 15:30:27 ( 22.65, 152.33) 08/16/2013 15:34:02 ( 10.02, 149.33)
18 08/17/2013 02:39:31 ( 10.01, 159.85) 08/17/2013 02:43:07 ( 22.69, 156.83)
19 08/17/2013 15:11:25 ( 22.69, 157.10) 08/17/2013 15:15:01 ( 10.01, 154.08)
20 08/18/2013 02:20:31 ( 10.02, 164.61) 08/18/2013 02:24:06 ( 22.64, 161.60)
21 08/18/2013 14:52:25 ( 22.68, 161.85) 08/18/2013 14:56:01 ( 10.01, 158.83)
22 08/19/2013 03:43:00 ( 10.03, 143.98) 08/19/2013 03:46:35 ( 22.65, 140.98)
23
